| time (UTC) | temp F | wind direction | speed MPH | gust MPH | rain 1hr in | rain 24hr in | rain mn in | humidity % | barometer mb |
| 20260509004758 | 81 | 193 | 0.0 | 0.0 | 0.00 | 0.00 | 0.00 | ||
| 20260509003257 | 82 | 184 | 2.0 | 2.0 | 0.00 | 0.00 | 0.00 | ||
| 20260509001757 | 81 | 153 | 2.0 | 0.0 | 0.00 | 0.00 | 0.00 | ||
| 20260508234756 | 85 | 194 | 3.0 | 7.0 | 0.00 | 0.00 | 0.00 | ||
| 20260508233256 | 84 | 248 | 3.0 | 5.0 | 0.00 | 0.00 | 0.00 | ||
| 20260508231756 | 87 | 100 | 0.0 | 0.0 | 0.00 | 0.00 | 0.00 | ||
| 20260508224755 | 86 | 139 | 1.0 | 6.0 | 0.00 | 0.00 | 0.00 | ||
| 20260508223254 | 85 | 113 | 1.0 | 2.0 | 0.00 | 0.00 | 0.00 | ||
| 20260508220254 | 82 | 257 | 1.0 | 4.0 | 0.00 | 0.00 | 0.00 | ||
| 20260508214754 | 84 | 173 | 8.0 | 5.0 | 0.00 | 0.00 | 0.00 | ||
| 20260508213253 | 84 | 207 | 3.0 | 6.0 | 0.00 | 0.00 | 0.00 | ||
| 20260508211753 | 84 | 108 | 2.0 | 0.0 | 0.00 | 0.00 | 0.00 | ||
| 20260508210253 | 84 | 193 | 0.0 | 0.0 | 0.00 | 0.00 | 0.00 | ||
| 20260508204753 | 82 | 228 | 2.0 | 2.0 | 0.00 | 0.00 | 0.00 | ||
| 20260508203253 | 83 | 94 | 0.0 | 3.0 | 0.00 | 0.00 | 0.00 | ||
| 20260508201753 | 83 | 198 | 0.0 | 2.0 | 0.00 | 0.00 | 0.00 | ||
| 20260508200252 | 82 | 224 | 5.0 | 7.0 | 0.00 | 0.00 | 0.00 | ||
| 20260508193253 | 81 | 285 | 5.0 | 4.0 | 0.00 | 0.00 | 0.00 | ||
| 20260508191753 | 80 | 210 | 3.0 | 8.0 | 0.00 | 0.00 | 0.00 | ||
| 20260508184754 | 79 | 212 | 8.0 | 10.0 | 0.00 | 0.00 | 0.00 | ||
| 20260508183254 | 78 | 183 | 4.0 | 4.0 | 0.00 | 0.00 | 0.00 | ||
| 20260508181754 | 78 | 114 | 6.0 | 3.0 | 0.00 | 0.00 | 0.00 | ||
| 20260508180254 | 77 | 195 | 6.0 | 7.0 | 0.00 | 0.00 | 0.00 | ||
| 20260508174755 | 77 | 127 | 3.0 | 10.0 | 0.00 | 0.00 | 0.00 | ||
| 20260508173256 | 77 | 179 | 4.0 | 7.0 | 0.00 | 0.00 | 0.00 | ||
| 20260508171756 | 77 | 134 | 3.0 | 5.0 | 0.00 | 0.00 | 0.00 | ||
| 20260508170257 | 76 | 124 | 4.0 | 1.0 | 0.00 | 0.00 | 0.00 | ||
| 20260508164758 | 75 | 173 | 4.0 | 3.0 | 0.00 | 0.00 | 0.00 | ||
| 20260508163259 | 76 | 174 | 6.0 | 4.0 | 0.00 | 0.00 | 0.00 | ||
| 20260508161803 | 74 | 170 | 2.0 | 6.0 | 0.00 | 0.00 | 0.00 | ||
| 20260508160301 | 76 | 124 | 0.0 | 1.0 | 0.00 | 0.00 | 0.00 | ||
| 20260508150307 | 68 | 262 | 1.0 | 0.0 | 0.00 | 0.00 | 0.00 | ||
| 20260508144808 | 67 | 285 | 1.0 | 0.0 | 0.00 | 0.00 | 0.00 | ||
| 20260508143309 | 67 | 49 | 0.0 | 0.0 | 0.00 | 0.00 | 0.00 | ||
| 20260508141810 | 67 | 49 | 0.0 | 0.0 | 0.00 | 0.00 | 0.00 | ||
| 20260508140311 | 68 | 49 | 0.0 | 0.0 | 0.00 | 0.00 | 0.00 | ||
| 20260508134812 | 63 | 49 | 0.0 | 0.0 | 0.00 | 0.00 | 0.00 | ||
| 20260508133314 | 59 | 49 | 0.0 | 0.0 | 0.00 | 0.00 | 0.00 | ||
| 20260508131815 | 55 | 49 | 0.0 | 0.0 | 0.00 | 0.00 | 0.00 | ||
| 20260508130317 | 54 | 96 | 0.0 | 1.0 | 0.00 | 0.00 | 0.00 | ||
| 20260508121822 | 44 | 124 | 0.0 | 0.0 | 0.00 | 0.00 | 0.00 | ||
| 20260508120323 | 45 | 124 | 0.0 | 0.0 | 0.00 | 0.00 | 0.00 | ||
| 20260508114825 | 46 | 111 | 0.0 | 0.0 | 0.00 | 0.00 | 0.00 | ||
| 20260508113327 | 44 | 172 | 0.0 | 0.0 | 0.00 | 0.00 | 0.00 | ||
| 20260508111828 | 41 | 172 | 0.0 | 0.0 | 0.00 | 0.00 | 0.00 | ||
| 20260508110330 | 41 | 172 | 0.0 | 0.0 | 0.00 | 0.00 | 0.00 | ||
| 20260508104831 | 41 | 172 | 0.0 | 0.0 | 0.00 | 0.00 | 0.00 | ||
| 20260508103333 | 46 | 172 | 0.0 | 0.0 | 0.00 | 0.00 | 0.00 | ||
| 20260508101835 | 44 | 172 | 0.0 | 0.0 | 0.00 | 0.00 | 0.00 | ||
| 20260508100336 | 41 | 172 | 0.0 | 0.0 | 0.00 | 0.00 | 0.00 | ||
| 20260508093340 | 42 | 172 | 0.0 | 0.0 | 0.00 | 0.00 | 0.00 | ||
| 20260508091841 | 44 | 172 | 0.0 | 0.0 | 0.00 | 0.00 | 0.00 | ||
| 20260508090343 | 41 | 172 | 0.0 | 0.0 | 0.00 | 0.00 | 0.00 | ||
| 20260508084844 | 41 | 172 | 0.0 | 0.0 | 0.00 | 0.00 | 0.00 | ||
| 20260508083346 | 44 | 172 | 0.0 | 0.0 | 0.00 | 0.00 | 0.00 | ||
| 20260508081848 | 45 | 172 | 0.0 | 0.0 | 0.00 | 0.00 | 0.00 | ||
| 20260508080349 | 45 | 172 | 0.0 | 0.0 | 0.00 | 0.00 | 0.00 | ||
| 20260508074853 | 46 | 172 | 0.0 | 0.0 | 0.00 | 0.00 | 0.00 | ||
| 20260508073352 | 44 | 172 | 0.0 | 0.0 | 0.00 | 0.00 | 0.00 | ||
| 20260508071853 | 44 | 172 | 0.0 | 0.0 | 0.00 | 0.00 | 0.00 | ||
| 20260508070355 | 46 | 172 | 0.0 | 0.0 | 0.00 | 0.00 | 0.00 | ||
| 20260508063358 | 51 | 172 | 0.0 | 0.0 | 0.00 | 0.00 | 0.00 | ||
| 20260508061859 | 51 | 172 | 0.0 | 0.0 | 0.00 | 0.00 | 0.00 | ||
| 20260508060400 | 48 | 172 | 0.0 | 0.0 | 0.00 | 0.00 | 0.00 | ||
| 20260508054902 | 50 | 172 | 0.0 | 0.0 | 0.00 | 0.00 | 0.00 | ||
| 20260508053403 | 52 | 172 | 0.0 | 0.0 | 0.00 | 0.00 | 0.00 | ||
| 20260508051904 | 52 | 172 | 0.0 | 0.0 | 0.00 | 0.00 | 0.00 | ||
| 20260508050405 | 52 | 172 | 0.0 | 0.0 | 0.00 | 0.00 | 0.00 | ||
| 20260508044906 | 52 | 194 | 0.0 | 0.0 | 0.00 | 0.00 | 0.00 | ||
| 20260508043408 | 50 | 194 | 0.0 | 0.0 | 0.00 | 0.00 | 0.00 | ||
| 20260508041909 | 51 | 194 | 0.0 | 0.0 | 0.00 | 0.00 | 0.00 | ||
| 20260508040410 | 55 | 194 | 0.0 | 0.0 | 0.00 | 0.00 | 0.00 | ||
| 20260508034911 | 54 | 194 | 0.0 | 0.0 | 0.00 | 0.00 | 0.00 | ||
| 20260508033412 | 52 | 194 | 0.0 | 0.0 | 0.00 | 0.00 | 0.00 | ||
| 20260508031913 | 54 | 194 | 0.0 | 0.0 | 0.00 | 0.00 | 0.00 | ||
| 20260508030414 | 55 | 194 | 0.0 | 0.0 | 0.00 | 0.00 | 0.00 | ||
| 20260508024915 | 56 | 194 | 0.0 | 0.0 | 0.00 | 0.00 | 0.00 | ||
| 20260508023416 | 58 | 194 | 0.0 | 0.0 | 0.00 | 0.00 | 0.00 | ||
| 20260508020417 | 59 | 194 | 0.0 | 0.0 | 0.00 | 0.00 | 0.00 | ||
| 20260508014918 | 62 | 194 | 0.0 | 0.0 | 0.00 | 0.00 | 0.00 | ||
| 20260508013418 | 67 | 194 | 0.0 | 0.0 | 0.00 | 0.00 | 0.00 | ||
| 20260508011919 | 71 | 207 | 0.0 | 2.0 | 0.00 | 0.00 | 0.00 | ||
| 20260508010419 | 71 | 245 | 1.0 | 3.0 | 0.00 | 0.00 | 0.00 |